| time (UTC) | temp F | wind direction | speed MPH | gust MPH | rain 1hr in | rain 24hr in | rain mn in | humidity % | barometer mb |
| 20260505024726 | 58 | 271 | 2.0 | 2.0 | 0.00 | 0.00 | 0.00 | 46 | 1019.8 |
| 20260505024223 | 59 | 235 | 4.0 | 6.0 | 0.00 | 0.00 | 0.00 | 42 | 1019.6 |
| 20260505023721 | 58 | 259 | 0.0 | 0.0 | 0.00 | 0.00 | 0.00 | 47 | 1019.5 |
| 20260505023218 | 58 | 321 | 4.0 | 5.0 | 0.00 | 0.00 | 0.00 | 46 | 1019.2 |
| 20260505022715 | 58 | 309 | 0.0 | 1.0 | 0.00 | 0.00 | 0.00 | 46 | 1019.1 |
| 20260505022212 | 58 | 252 | 0.0 | 0.0 | 0.00 | 0.00 | 0.00 | 48 | 1019.0 |
| 20260505021709 | 59 | 265 | 0.0 | 0.0 | 0.00 | 0.00 | 0.00 | 48 | 1019.0 |
| 20260505021206 | 60 | 268 | 0.0 | 0.0 | 0.00 | 0.00 | 0.00 | 47 | 1018.9 |
| 20260505020701 | 60 | 137 | 3.0 | 3.0 | 0.00 | 0.00 | 0.00 | 44 | 1018.7 |
| 20260505020157 | 60 | 223 | 0.0 | 1.0 | 0.00 | 0.00 | 0.00 | 45 | 1018.7 |
| 20260505015655 | 61 | 97 | 0.0 | 1.0 | 0.00 | 0.00 | 0.00 | 45 | 1018.5 |
| 20260505015151 | 62 | 260 | 0.0 | 0.0 | 0.00 | 0.00 | 0.00 | 46 | 1018.5 |
| 20260505014648 | 61 | 140 | 0.0 | 0.0 | 0.00 | 0.00 | 0.00 | 44 | 1018.4 |
| 20260505014145 | 62 | 246 | 0.0 | 0.0 | 0.00 | 0.00 | 0.00 | 45 | 1018.3 |
| 20260505013642 | 63 | 242 | 0.0 | 1.0 | 0.00 | 0.00 | 0.00 | 44 | 1018.3 |
| 20260505013139 | 64 | 56 | 2.0 | 7.0 | 0.00 | 0.00 | 0.00 | 42 | 1018.4 |
| 20260505012638 | 65 | 195 | 0.0 | 0.0 | 0.00 | 0.00 | 0.00 | 43 | 1018.5 |
| 20260505012134 | 65 | 245 | 0.0 | 0.0 | 0.00 | 0.00 | 0.00 | 42 | 1018.4 |
| 20260505011630 | 65 | 282 | 0.0 | 1.0 | 0.00 | 0.00 | 0.00 | 42 | 1018.4 |
| 20260505011127 | 65 | 109 | 0.0 | 0.0 | 0.00 | 0.00 | 0.00 | 41 | 1018.4 |
| 20260505010622 | 65 | 287 | 2.0 | 3.0 | 0.00 | 0.00 | 0.00 | 42 | 1018.3 |
| 20260505010119 | 65 | 273 | 1.0 | 2.0 | 0.00 | 0.00 | 0.00 | 38 | 1018.3 |
| 20260505005615 | 65 | 164 | 0.0 | 1.0 | 0.00 | 0.00 | 0.00 | 42 | 1018.0 |
| 20260505005112 | 66 | 42 | 1.0 | 2.0 | 0.00 | 0.00 | 0.00 | 42 | 1018.5 |
| 20260505004609 | 66 | 30 | 2.0 | 2.0 | 0.00 | 0.00 | 0.00 | 41 | 1018.3 |
| 20260505004106 | 67 | 343 | 1.0 | 2.0 | 0.00 | 0.00 | 0.00 | 39 | 1018.1 |
| 20260505003603 | 66 | 349 | 1.0 | 1.0 | 0.00 | 0.00 | 0.00 | 42 | 1018.3 |
| 20260505003101 | 65 | 244 | 0.0 | 1.0 | 0.00 | 0.00 | 0.00 | 43 | 1018.5 |
| 20260505002556 | 65 | 76 | 0.0 | 2.0 | 0.00 | 0.00 | 0.00 | 41 | 1018.0 |
| 20260505002055 | 65 | 3 | 3.0 | 5.0 | 0.00 | 0.00 | 0.00 | 43 | 1018.1 |
| 20260505001552 | 65 | 131 | 1.0 | 1.0 | 0.00 | 0.00 | 0.00 | 43 | 1018.0 |
| 20260505001049 | 66 | 75 | 0.0 | 2.0 | 0.00 | 0.00 | 0.00 | 42 | 1018.1 |
| 20260505000546 | 67 | 353 | 0.0 | 0.0 | 0.00 | 0.00 | 0.00 | 42 | 1017.9 |
| 20260505000044 | 68 | 33 | 2.0 | 6.0 | 0.00 | 0.00 | 0.00 | 41 | 1017.9 |
| 20260504235540 | 69 | 152 | 0.0 | 0.0 | 0.00 | 0.00 | 0.00 | 42 | 1017.8 |
| 20260504235038 | 69 | 136 | 0.0 | 0.0 | 0.00 | 0.00 | 0.00 | 39 | 1017.8 |
| 20260504234534 | 69 | 325 | 1.0 | 1.0 | 0.00 | 0.00 | 0.00 | 44 | 1017.7 |
| 20260504234031 | 68 | 324 | 2.0 | 3.0 | 0.00 | 0.00 | 0.00 | 39 | 1017.6 |
| 20260504233526 | 68 | 161 | 0.0 | 0.0 | 0.00 | 0.00 | 0.00 | 43 | 1017.6 |
| 20260504233023 | 68 | 323 | 1.0 | 1.0 | 0.00 | 0.00 | 0.00 | 41 | 1017.7 |
| 20260504232520 | 69 | 235 | 0.0 | 1.0 | 0.00 | 0.00 | 0.00 | 38 | 1017.6 |
| 20260504232018 | 69 | 174 | 2.0 | 3.0 | 0.00 | 0.00 | 0.00 | 39 | 1017.8 |
| 20260504231514 | 68 | 67 | 5.0 | 7.0 | 0.00 | 0.00 | 0.00 | 40 | 1017.7 |
| 20260504231011 | 68 | 338 | 9.0 | 10.0 | 0.00 | 0.00 | 0.00 | 40 | 1017.6 |
| 20260504230507 | 69 | 352 | 5.0 | 6.0 | 0.00 | 0.00 | 0.00 | 40 | 1017.7 |
| 20260504230006 | 69 | 325 | 6.0 | 8.0 | 0.00 | 0.00 | 0.00 | 39 | 1017.9 |
| 20260504225503 | 68 | 351 | 5.0 | 8.0 | 0.00 | 0.00 | 0.00 | 40 | 1017.7 |
| 20260504225000 | 69 | 355 | 1.0 | 2.0 | 0.00 | 0.00 | 0.00 | 40 | 1017.7 |
| 20260504224456 | 69 | 338 | 1.0 | 1.0 | 0.00 | 0.00 | 0.00 | 42 | 1017.7 |
| 20260504223953 | 68 | 325 | 4.0 | 6.0 | 0.00 | 0.00 | 0.00 | 37 | 1017.7 |
| 20260504223450 | 68 | 14 | 6.0 | 9.0 | 0.00 | 0.00 | 0.00 | 38 | 1017.9 |
| 20260504222945 | 69 | 329 | 8.0 | 10.0 | 0.00 | 0.00 | 0.00 | 39 | 1017.6 |
| 20260504222443 | 69 | 328 | 11.0 | 14.0 | 0.00 | 0.00 | 0.00 | 37 | 1017.8 |
| 20260504221940 | 69 | 336 | 8.0 | 10.0 | 0.00 | 0.00 | 0.00 | 37 | 1017.7 |
| 20260504221437 | 69 | 347 | 6.0 | 8.0 | 0.00 | 0.00 | 0.00 | 37 | 1017.6 |
| 20260504220934 | 69 | 3 | 8.0 | 9.0 | 0.00 | 0.00 | 0.00 | 37 | 1017.6 |
| 20260504220431 | 69 | 304 | 5.0 | 5.0 | 0.00 | 0.00 | 0.00 | 40 | 1017.6 |
| 20260504215928 | 70 | 335 | 12.0 | 14.0 | 0.00 | 0.00 | 0.00 | 38 | 1017.7 |
| 20260504215425 | 70 | 344 | 5.0 | 5.0 | 0.00 | 0.00 | 0.00 | 39 | 1017.6 |
| 20260504214921 | 69 | 29 | 3.0 | 3.0 | 0.00 | 0.00 | 0.00 | 41 | 1017.7 |
| 20260504214418 | 70 | 334 | 9.0 | 11.0 | 0.00 | 0.00 | 0.00 | 39 | 1017.6 |
| 20260504213914 | 70 | 330 | 8.0 | 10.0 | 0.00 | 0.00 | 0.00 | 37 | 1017.6 |
| 20260504213410 | 70 | 324 | 11.0 | 13.0 | 0.00 | 0.00 | 0.00 | 37 | 1017.9 |
| 20260504212908 | 70 | 344 | 6.0 | 7.0 | 0.00 | 0.00 | 0.00 | 41 | 1017.9 |
| 20260504212403 | 69 | 323 | 8.0 | 10.0 | 0.00 | 0.00 | 0.00 | 37 | 1017.9 |
| 20260504211902 | 69 | 327 | 7.0 | 8.0 | 0.00 | 0.00 | 0.00 | 39 | 1017.7 |
| 20260504211357 | 69 | 305 | 7.0 | 8.0 | 0.00 | 0.00 | 0.00 | 39 | 1017.9 |
| 20260504210855 | 69 | 343 | 6.0 | 7.0 | 0.00 | 0.00 | 0.00 | 38 | 1017.8 |
| 20260504210352 | 69 | 352 | 10.0 | 13.0 | 0.00 | 0.00 | 0.00 | 41 | 1018.0 |
| 20260504205849 | 68 | 286 | 11.0 | 13.0 | 0.00 | 0.00 | 0.00 | 37 | 1018.4 |
| 20260504205347 | 69 | 322 | 9.0 | 10.0 | 0.00 | 0.00 | 0.00 | 39 | 1018.1 |
| 20260504204845 | 68 | 296 | 7.0 | 8.0 | 0.00 | 0.00 | 0.00 | 40 | 1018.3 |
| 20260504204343 | 69 | 352 | 10.0 | 14.0 | 0.00 | 0.00 | 0.00 | 40 | 1018.4 |
| 20260504203842 | 69 | 326 | 4.0 | 6.0 | 0.00 | 0.00 | 0.00 | 38 | 1018.4 |
| 20260504203338 | 68 | 318 | 5.0 | 7.0 | 0.00 | 0.00 | 0.00 | 38 | 1018.1 |
| 20260504202834 | 68 | 327 | 6.0 | 8.0 | 0.00 | 0.00 | 0.00 | 39 | 1018.3 |
| 20260504202332 | 69 | 270 | 4.0 | 6.0 | 0.00 | 0.00 | 0.00 | 40 | 1018.3 |
| 20260504201828 | 68 | 320 | 10.0 | 13.0 | 0.00 | 0.00 | 0.00 | 39 | 1018.4 |
| 20260504201326 | 68 | 318 | 3.0 | 5.0 | 0.00 | 0.00 | 0.00 | 39 | 1018.4 |
| 20260504200823 | 68 | 318 | 12.0 | 14.0 | 0.00 | 0.00 | 0.00 | 37 | 1018.4 |
| 20260504200319 | 68 | 319 | 5.0 | 10.0 | 0.00 | 0.00 | 0.00 | 42 | 1018.4 |
| 20260504195815 | 68 | 20 | 8.0 | 9.0 | 0.00 | 0.00 | 0.00 | 38 | 1018.5 |
| 20260504195311 | 69 | 324 | 6.0 | 7.0 | 0.00 | 0.00 | 0.00 | 38 | 1018.5 |
| 20260504194808 | 67 | 323 | 6.0 | 8.0 | 0.00 | 0.00 | 0.00 | 43 | 1018.5 |
| 20260504194304 | 68 | 319 | 9.0 | 9.0 | 0.00 | 0.00 | 0.00 | 38 | 1018.3 |
| 20260504193801 | 67 | 331 | 9.0 | 10.0 | 0.00 | 0.00 | 0.00 | 37 | 1018.6 |
| 20260504193258 | 66 | 345 | 8.0 | 10.0 | 0.00 | 0.00 | 0.00 | 39 | 1018.5 |
| 20260504192757 | 67 | 355 | 5.0 | 6.0 | 0.00 | 0.00 | 0.00 | 41 | 1018.7 |
| 20260504192254 | 67 | 337 | 6.0 | 7.0 | 0.00 | 0.00 | 0.00 | 41 | 1018.8 |
| 20260504191753 | 64 | 336 | 6.0 | 7.0 | 0.00 | 0.00 | 0.00 | 40 | 1018.9 |
| 20260504191249 | 65 | 0 | 9.0 | 13.0 | 0.00 | 0.00 | 0.00 | 42 | 1018.9 |
| 20260504190745 | 67 | 335 | 8.0 | 9.0 | 0.00 | 0.00 | 0.00 | 42 | 1018.9 |
| 20260504190242 | 68 | 345 | 3.0 | 3.0 | 0.00 | 0.00 | 0.00 | 41 | 1019.1 |
| 20260504185738 | 66 | 358 | 9.0 | 10.0 | 0.00 | 0.00 | 0.00 | 39 | 1018.9 |
| 20260504185235 | 66 | 329 | 9.0 | 11.0 | 0.00 | 0.00 | 0.00 | 39 | 1019.0 |
| 20260504184731 | 65 | 328 | 12.0 | 16.0 | 0.00 | 0.00 | 0.00 | 39 | 1019.1 |
| 20260504184227 | 65 | 252 | 5.0 | 8.0 | 0.00 | 0.00 | 0.00 | 43 | 1019.2 |
| 20260504183723 | 65 | 318 | 6.0 | 7.0 | 0.00 | 0.00 | 0.00 | 39 | 1019.4 |
| 20260504183220 | 65 | 346 | 8.0 | 10.0 | 0.00 | 0.00 | 0.00 | 43 | 1019.1 |
| 20260504182718 | 65 | 319 | 6.0 | 7.0 | 0.00 | 0.00 | 0.00 | 40 | 1019.5 |
| 20260504182215 | 64 | 314 | 4.0 | 5.0 | 0.00 | 0.00 | 0.00 | 44 | 1019.6 |
| 20260504181713 | 64 | 337 | 8.0 | 9.0 | 0.00 | 0.00 | 0.00 | 43 | 1019.7 |
| 20260504181210 | 65 | 324 | 6.0 | 7.0 | 0.00 | 0.00 | 0.00 | 43 | 1019.6 |
| 20260504180709 | 65 | 335 | 10.0 | 11.0 | 0.00 | 0.00 | 0.00 | 43 | 1019.5 |
| 20260504180207 | 64 | 326 | 7.0 | 8.0 | 0.00 | 0.00 | 0.00 | 41 | 1019.8 |
| 20260504175704 | 64 | 299 | 4.0 | 6.0 | 0.00 | 0.00 | 0.00 | 43 | 1019.6 |
| 20260504175201 | 64 | 307 | 4.0 | 7.0 | 0.00 | 0.00 | 0.00 | 43 | 1019.6 |
| 20260504174659 | 63 | 324 | 7.0 | 8.0 | 0.00 | 0.00 | 0.00 | 40 | 1019.8 |
| 20260504174156 | 62 | 278 | 3.0 | 3.0 | 0.00 | 0.00 | 0.00 | 43 | 1019.8 |
| 20260504173652 | 63 | 328 | 8.0 | 9.0 | 0.00 | 0.00 | 0.00 | 43 | 1019.7 |
| 20260504173150 | 63 | 319 | 9.0 | 11.0 | 0.00 | 0.00 | 0.00 | 43 | 1019.9 |
| 20260504172646 | 63 | 217 | 3.0 | 5.0 | 0.00 | 0.00 | 0.00 | 42 | 1020.0 |
| 20260504172143 | 62 | 345 | 8.0 | 8.0 | 0.00 | 0.00 | 0.00 | 42 | 1019.9 |
| 20260504171639 | 62 | 322 | 6.0 | 8.0 | 0.00 | 0.00 | 0.00 | 42 | 1019.9 |
| 20260504171137 | 63 | 328 | 5.0 | 6.0 | 0.00 | 0.00 | 0.00 | 43 | 1020.0 |
| 20260504170633 | 62 | 2 | 2.0 | 2.0 | 0.00 | 0.00 | 0.00 | 43 | 1020.2 |
| 20260504170131 | 62 | 326 | 7.0 | 8.0 | 0.00 | 0.00 | 0.00 | 42 | 1020.0 |
| 20260504151016 | 58 | 333 | 5.0 | 6.0 | 0.00 | 0.00 | 0.00 | 50 | 1020.4 |
| 20260504150514 | 57 | 347 | 6.0 | 7.0 | 0.00 | 0.00 | 0.00 | 52 | 1020.4 |
| 20260504140939 | 54 | 325 | 3.0 | 6.0 | 0.00 | 0.00 | 0.00 | 61 | 1020.4 |
| 20260504140436 | 53 | 5 | 2.0 | 3.0 | 0.00 | 0.00 | 0.00 | 60 | 1020.5 |
| 20260504130400 | 40 | 157 | 0.0 | 0.0 | 0.00 | 0.00 | 0.00 | 94 | 1019.6 |
| 20260504110248 | 38 | 233 | 0.0 | 0.0 | 0.00 | 0.00 | 0.00 | 92 | 1019.1 |
| 20260504100211 | 41 | 211 | 0.0 | 0.0 | 0.00 | 0.00 | 0.00 | 90 | 1018.5 |
| 20260504090134 | 42 | 223 | 0.0 | 0.0 | 0.00 | 0.00 | 0.00 | 87 | 1018.5 |
| 20260504081604 | 42 | 250 | 0.0 | 1.0 | 0.00 | 0.00 | 0.00 | 86 | 1018.6 |
| 20260504081100 | 43 | 263 | 0.0 | 0.0 | 0.00 | 0.00 | 0.00 | 85 | 1018.6 |
| 20260504080557 | 44 | 234 | 0.0 | 1.0 | 0.00 | 0.00 | 0.00 | 85 | 1018.5 |
| 20260504050409 | 50 | 193 | 0.0 | 1.0 | 0.00 | 0.00 | 0.00 | 72 | 1017.9 |
| 20260504045907 | 51 | 211 | 0.0 | 0.0 | 0.00 | 0.00 | 0.00 | 71 | 1017.7 |
| 20260504045402 | 52 | 236 | 1.0 | 1.0 | 0.00 | 0.00 | 0.00 | 68 | 1017.8 |
| 20260504044859 | 51 | 163 | 2.0 | 2.0 | 0.00 | 0.00 | 0.00 | 68 | 1017.7 |
| 20260504044356 | 52 | 232 | 0.0 | 0.0 | 0.00 | 0.00 | 0.00 | 70 | 1018.0 |
| 20260504043854 | 51 | 261 | 3.0 | 3.0 | 0.00 | 0.00 | 0.00 | 71 | 1017.5 |
| 20260504043350 | 53 | 232 | 0.0 | 0.0 | 0.00 | 0.00 | 0.00 | 70 | 1017.6 |
| 20260504042848 | 51 | 174 | 1.0 | 1.0 | 0.00 | 0.00 | 0.00 | 70 | 1017.4 |
| 20260504042344 | 55 | 251 | 2.0 | 3.0 | 0.00 | 0.00 | 0.00 | 65 | 1017.3 |
| 20260504041840 | 54 | 212 | 0.0 | 0.0 | 0.00 | 0.00 | 0.00 | 65 | 1017.3 |
| 20260504041337 | 54 | 345 | 1.0 | 1.0 | 0.00 | 0.00 | 0.00 | 68 | 1017.0 |
| 20260504040833 | 56 | 220 | 0.0 | 0.0 | 0.00 | 0.00 | 0.00 | 63 | 1017.4 |
| 20260504040331 | 56 | 207 | 0.0 | 0.0 | 0.00 | 0.00 | 0.00 | 66 | 1017.4 |
| 20260504035826 | 55 | 217 | 0.0 | 0.0 | 0.00 | 0.00 | 0.00 | 68 | 1017.2 |
| 20260504035324 | 57 | 4 | 2.0 | 2.0 | 0.00 | 0.00 | 0.00 | 66 | 1017.2 |
| 20260504034820 | 56 | 79 | 2.0 | 2.0 | 0.00 | 0.00 | 0.00 | 61 | 1017.0 |
| 20260504034319 | 55 | 141 | 2.0 | 3.0 | 0.00 | 0.00 | 0.00 | 64 | 1016.9 |
| 20260504033815 | 56 | 210 | 0.0 | 0.0 | 0.00 | 0.00 | 0.00 | 64 | 1017.0 |
| 20260504033313 | 56 | 307 | 0.0 | 0.0 | 0.00 | 0.00 | 0.00 | 64 | 1017.0 |
| 20260504032804 | 58 | 278 | 0.0 | 0.0 | 0.00 | 0.00 | 0.00 | 62 | 1016.9 |
| 20260504032301 | 54 | 258 | 0.0 | 1.0 | 0.00 | 0.00 | 0.00 | 69 | 1016.8 |
| 20260504031757 | 55 | 249 | 0.0 | 0.0 | 0.00 | 0.00 | 0.00 | 70 | 1016.9 |
| 20260504031255 | 55 | 284 | 0.0 | 0.0 | 0.00 | 0.00 | 0.00 | 71 | 1016.7 |
| 20260504030750 | 55 | 124 | 1.0 | 2.0 | 0.00 | 0.00 | 0.00 | 65 | 1017.0 |
| 20260504030248 | 57 | 73 | 1.0 | 2.0 | 0.00 | 0.00 | 0.00 | 58 | 1016.7 |
| 20260504025744 | 58 | 283 | 0.0 | 0.0 | 0.00 | 0.00 | 0.00 | 61 | 1016.6 |
| 20260504025241 | 60 | 197 | 0.0 | 1.0 | 0.00 | 0.00 | 0.00 | 58 | 1016.7 |